| time (UTC) | temp F | wind direction | speed MPH | gust MPH | rain 1hr in | rain 24hr in | rain mn in | humidity % | barometer mb |
| 20260905144712 | 74 | 86 | 0.0 | 0.0 | 0.00 | 0.00 | 0.00 | 90 | 1017.2 |
| 20260905144212 | 74 | 69 | 0.0 | 1.0 | 0.00 | 0.00 | 0.00 | 91 | 1016.8 |
| 20260905143712 | 73 | 62 | 1.0 | 2.0 | 0.00 | 0.00 | 0.00 | 92 | 1016.7 |
| 20260905143212 | 73 | 33 | 2.0 | 2.0 | 0.00 | 0.00 | 0.00 | 92 | 1016.9 |
| 20260905142710 | 73 | 350 | 5.0 | 7.0 | 0.00 | 0.00 | 0.00 | 92 | 1016.6 |
| 20260905142205 | 73 | 7 | 1.0 | 2.0 | 0.00 | 0.00 | 0.00 | 93 | 1016.7 |
| 20260905141701 | 73 | 46 | 1.0 | 1.0 | 0.00 | 0.00 | 0.00 | 94 | 1016.8 |
| 20260905141156 | 72 | 76 | 1.0 | 2.0 | 0.00 | 0.00 | 0.00 | 94 | 1017.0 |
| 20260905140651 | 72 | 25 | 3.0 | 6.0 | 0.00 | 0.00 | 0.00 | 95 | 1016.7 |
| 20260905140145 | 72 | 86 | 4.0 | 6.0 | 0.00 | 0.00 | 0.00 | 96 | 1016.8 |
| 20260905135640 | 71 | 62 | 3.0 | 3.0 | 0.00 | 0.00 | 0.00 | 96 | 1016.7 |
| 20260905135136 | 71 | 86 | 0.0 | 0.0 | 0.00 | 0.00 | 0.00 | 96 | 1016.9 |
| 20260905134630 | 71 | 52 | 3.0 | 3.0 | 0.00 | 0.00 | 0.00 | 96 | 1017.0 |
| 20260905134129 | 71 | 75 | 1.0 | 1.0 | 0.00 | 0.00 | 0.00 | 97 | 1016.7 |
| 20260905133625 | 71 | 343 | 2.0 | 2.0 | 0.00 | 0.00 | 0.00 | 97 | 1016.7 |
| 20260905133125 | 71 | 78 | 4.0 | 6.0 | 0.00 | 0.00 | 0.00 | 97 | 1016.8 |
| 20260905132624 | 71 | 27 | 1.0 | 2.0 | 0.00 | 0.00 | 0.00 | 97 | 1017.1 |
| 20260905132119 | 71 | 60 | 1.0 | 2.0 | 0.00 | 0.00 | 0.00 | 98 | 1017.1 |
| 20260905131614 | 71 | 57 | 0.0 | 2.0 | 0.00 | 0.00 | 0.00 | 98 | 1017.2 |
| 20260905131110 | 71 | 357 | 3.0 | 3.0 | 0.00 | 0.00 | 0.00 | 98 | 1016.8 |
| 20260905130609 | 71 | 5 | 2.0 | 2.0 | 0.00 | 0.00 | 0.00 | 98 | 1016.4 |
| 20260905130104 | 71 | 29 | 1.0 | 2.0 | 0.00 | 0.00 | 0.00 | 98 | 1016.5 |
| 20260905125603 | 71 | 3 | 2.0 | 2.0 | 0.00 | 0.00 | 0.00 | 98 | 1016.7 |
| 20260905125059 | 70 | 66 | 2.0 | 2.0 | 0.00 | 0.00 | 0.00 | 98 | 1016.5 |
| 20260905124555 | 70 | 82 | 1.0 | 2.0 | 0.00 | 0.00 | 0.00 | 98 | 1016.4 |
| 20260905124051 | 70 | 45 | 1.0 | 2.0 | 0.00 | 0.00 | 0.00 | 98 | 1016.2 |
| 20260905123546 | 70 | 22 | 2.0 | 5.0 | 0.00 | 0.00 | 0.00 | 98 | 1016.1 |
| 20260905123043 | 70 | 69 | 1.0 | 2.0 | 0.00 | 0.00 | 0.00 | 99 | 1016.3 |
| 20260905122543 | 70 | 76 | 0.0 | 0.0 | 0.00 | 0.00 | 0.00 | 98 | 1016.2 |
| 20260905122037 | 70 | 41 | 1.0 | 1.0 | 0.00 | 0.00 | 0.00 | 98 | 1015.9 |
| 20260905121532 | 70 | 25 | 2.0 | 3.0 | 0.00 | 0.00 | 0.00 | 98 | 1015.8 |
| 20260905121027 | 70 | 76 | 0.0 | 0.0 | 0.00 | 0.00 | 0.00 | 99 | 1015.8 |
| 20260905120527 | 70 | 59 | 1.0 | 1.0 | 0.00 | 0.00 | 0.00 | 98 | 1016.0 |
| 20260905120022 | 70 | 54 | 1.0 | 1.0 | 0.00 | 0.00 | 0.00 | 98 | 1016.0 |
| 20260905115521 | 70 | 10 | 2.0 | 2.0 | 0.00 | 0.00 | 0.00 | 98 | 1016.0 |
| 20260905115016 | 70 | 36 | 1.0 | 1.0 | 0.00 | 0.00 | 0.00 | 98 | 1015.7 |
| 20260905114515 | 69 | 50 | 3.0 | 3.0 | 0.00 | 0.00 | 0.00 | 98 | 1015.7 |
| 20260905114014 | 69 | 62 | 1.0 | 2.0 | 0.00 | 0.00 | 0.00 | 98 | 1015.9 |
| 20260905113510 | 69 | 68 | 2.0 | 2.0 | 0.00 | 0.00 | 0.00 | 98 | 1015.8 |
| 20260905113005 | 69 | 65 | 2.0 | 2.0 | 0.00 | 0.00 | 0.00 | 98 | 1015.4 |
| 20260905112500 | 69 | 81 | 2.0 | 3.0 | 0.00 | 0.00 | 0.00 | 98 | 1015.6 |
| 20260905111955 | 70 | 49 | 1.0 | 2.0 | 0.00 | 0.00 | 0.00 | 98 | 1015.7 |
| 20260905111449 | 70 | 350 | 3.0 | 3.0 | 0.00 | 0.00 | 0.00 | 98 | 1015.4 |
| 20260905110944 | 70 | 31 | 5.0 | 6.0 | 0.00 | 0.00 | 0.00 | 98 | 1015.3 |
| 20260905110443 | 70 | 1 | 3.0 | 6.0 | 0.00 | 0.00 | 0.00 | 98 | 1015.4 |
| 20260905105937 | 70 | 79 | 2.0 | 5.0 | 0.00 | 0.00 | 0.00 | 98 | 1015.2 |
| 20260905105432 | 70 | 30 | 4.0 | 5.0 | 0.00 | 0.00 | 0.00 | 97 | 1015.3 |
| 20260905104926 | 70 | 28 | 3.0 | 3.0 | 0.00 | 0.00 | 0.00 | 97 | 1015.4 |
| 20260905104422 | 70 | 58 | 1.0 | 2.0 | 0.00 | 0.00 | 0.00 | 98 | 1015.2 |
| 20260905103921 | 70 | 38 | 1.0 | 2.0 | 0.00 | 0.00 | 0.00 | 98 | 1015.1 |
| 20260905103412 | 70 | 80 | 2.0 | 3.0 | 0.00 | 0.00 | 0.00 | 98 | 1015.2 |
| 20260905102908 | 70 | 65 | 1.0 | 2.0 | 0.00 | 0.00 | 0.00 | 98 | 1015.2 |
| 20260905102404 | 70 | 28 | 3.0 | 5.0 | 0.00 | 0.00 | 0.00 | 98 | 1015.0 |
| 20260905101904 | 70 | 33 | 2.0 | 3.0 | 0.00 | 0.00 | 0.00 | 98 | 1015.1 |
| 20260905101402 | 70 | 65 | 3.0 | 3.0 | 0.00 | 0.00 | 0.00 | 98 | 1014.9 |
| 20260905100857 | 70 | 15 | 2.0 | 2.0 | 0.00 | 0.00 | 0.00 | 98 | 1015.0 |
| 20260905100353 | 70 | 42 | 1.0 | 2.0 | 0.00 | 0.00 | 0.00 | 98 | 1014.9 |
| 20260905095852 | 70 | 34 | 3.0 | 3.0 | 0.00 | 0.00 | 0.00 | 98 | 1015.1 |
| 20260905095347 | 70 | 50 | 2.0 | 2.0 | 0.00 | 0.00 | 0.00 | 98 | 1014.9 |
| 20260905094841 | 70 | 38 | 5.0 | 6.0 | 0.00 | 0.00 | 0.00 | 98 | 1014.9 |
| 20260905094337 | 70 | 47 | 0.0 | 1.0 | 0.00 | 0.00 | 0.00 | 98 | 1014.6 |
| 20260905093836 | 70 | 36 | 1.0 | 1.0 | 0.00 | 0.00 | 0.00 | 98 | 1014.8 |
| 20260905093332 | 70 | 44 | 0.0 | 1.0 | 0.00 | 0.00 | 0.00 | 98 | 1014.9 |
| 20260905092827 | 70 | 69 | 0.0 | 0.0 | 0.00 | 0.00 | 0.00 | 98 | 1014.8 |
| 20260905092322 | 70 | 58 | 0.0 | 0.0 | 0.00 | 0.00 | 0.00 | 98 | 1014.7 |
| 20260905091817 | 70 | 52 | 2.0 | 2.0 | 0.00 | 0.00 | 0.00 | 98 | 1014.5 |
| 20260905091317 | 70 | 53 | 0.0 | 2.0 | 0.00 | 0.00 | 0.00 | 98 | 1014.6 |
| 20260905090815 | 70 | 65 | 2.0 | 2.0 | 0.00 | 0.00 | 0.00 | 98 | 1014.8 |
| 20260905090311 | 70 | 60 | 0.0 | 0.0 | 0.00 | 0.00 | 0.00 | 98 | 1014.7 |
| 20260905085811 | 70 | 46 | 1.0 | 1.0 | 0.00 | 0.00 | 0.00 | 98 | 1014.7 |
| 20260905085310 | 70 | 43 | 0.0 | 0.0 | 0.00 | 0.00 | 0.00 | 98 | 1014.7 |
| 20260905084806 | 70 | 61 | 0.0 | 1.0 | 0.00 | 0.00 | 0.00 | 98 | 1014.7 |
| 20260905084300 | 70 | 56 | 2.0 | 2.0 | 0.00 | 0.00 | 0.00 | 98 | 1014.8 |
| 20260905083755 | 70 | 49 | 2.0 | 2.0 | 0.00 | 0.00 | 0.00 | 98 | 1014.8 |
| 20260905083251 | 70 | 74 | 0.0 | 0.0 | 0.00 | 0.00 | 0.00 | 98 | 1014.8 |
| 20260905082746 | 70 | 69 | 0.0 | 1.0 | 0.00 | 0.00 | 0.00 | 97 | 1014.6 |
| 20260905082242 | 70 | 5 | 1.0 | 1.0 | 0.00 | 0.00 | 0.00 | 97 | 1014.4 |
| 20260905081742 | 70 | 63 | 1.0 | 1.0 | 0.00 | 0.00 | 0.00 | 97 | 1014.7 |
| 20260905081237 | 70 | 11 | 1.0 | 1.0 | 0.00 | 0.00 | 0.00 | 97 | 1014.3 |
| 20260905080737 | 70 | 70 | 0.0 | 0.0 | 0.00 | 0.00 | 0.00 | 97 | 1014.6 |
| 20260905080237 | 70 | 33 | 1.0 | 1.0 | 0.00 | 0.00 | 0.00 | 97 | 1014.6 |
| 20260905075736 | 70 | 53 | 0.0 | 1.0 | 0.00 | 0.00 | 0.00 | 97 | 1014.6 |
| 20260905075235 | 70 | 69 | 1.0 | 1.0 | 0.00 | 0.00 | 0.00 | 97 | 1014.7 |
| 20260905074734 | 70 | 47 | 1.0 | 1.0 | 0.00 | 0.00 | 0.00 | 97 | 1014.8 |
| 20260905074230 | 70 | 64 | 0.0 | 0.0 | 0.00 | 0.00 | 0.00 | 97 | 1014.7 |
| 20260905073725 | 70 | 71 | 0.0 | 0.0 | 0.00 | 0.00 | 0.00 | 97 | 1014.5 |
| 20260905073221 | 70 | 69 | 0.0 | 0.0 | 0.00 | 0.00 | 0.00 | 97 | 1014.5 |
| 20260905072720 | 71 | 70 | 0.0 | 1.0 | 0.00 | 0.00 | 0.00 | 97 | 1014.7 |
| 20260905072216 | 71 | 67 | 0.0 | 0.0 | 0.00 | 0.00 | 0.00 | 97 | 1014.8 |
| 20260905071712 | 70 | 68 | 0.0 | 0.0 | 0.00 | 0.00 | 0.00 | 97 | 1014.4 |
| 20260905071208 | 70 | 92 | 0.0 | 0.0 | 0.00 | 0.00 | 0.00 | 97 | 1014.5 |
| 20260905070703 | 70 | 78 | 0.0 | 0.0 | 0.00 | 0.00 | 0.00 | 97 | 1014.5 |
| 20260905070159 | 71 | 77 | 0.0 | 0.0 | 0.00 | 0.00 | 0.00 | 96 | 1014.6 |
| 20260905065657 | 71 | 73 | 0.0 | 0.0 | 0.00 | 0.00 | 0.00 | 97 | 1014.6 |
| 20260905065151 | 71 | 74 | 0.0 | 0.0 | 0.00 | 0.00 | 0.00 | 97 | 1014.6 |
| 20260905064647 | 71 | 66 | 0.0 | 0.0 | 0.00 | 0.00 | 0.00 | 96 | 1014.8 |
| 20260905064143 | 71 | 71 | 1.0 | 1.0 | 0.00 | 0.00 | 0.00 | 97 | 1014.7 |
| 20260905063640 | 71 | 50 | 1.0 | 1.0 | 0.00 | 0.00 | 0.00 | 96 | 1014.6 |
| 20260905063138 | 71 | 64 | 0.0 | 0.0 | 0.00 | 0.00 | 0.00 | 96 | 1014.6 |
| 20260905062633 | 71 | 76 | 0.0 | 0.0 | 0.00 | 0.00 | 0.00 | 96 | 1014.6 |
| 20260905062132 | 71 | 72 | 0.0 | 0.0 | 0.00 | 0.00 | 0.00 | 96 | 1014.7 |
| 20260905061627 | 71 | 78 | 0.0 | 0.0 | 0.00 | 0.00 | 0.00 | 97 | 1014.9 |
| 20260905061126 | 71 | 76 | 1.0 | 1.0 | 0.00 | 0.00 | 0.00 | 97 | 1014.6 |
| 20260905060622 | 71 | 34 | 1.0 | 2.0 | 0.00 | 0.00 | 0.00 | 97 | 1015.0 |
| 20260905060119 | 71 | 11 | 2.0 | 3.0 | 0.00 | 0.00 | 0.00 | 97 | 1015.0 |
| 20260905055617 | 71 | 58 | 1.0 | 1.0 | 0.00 | 0.00 | 0.00 | 97 | 1014.5 |
| 20260905055112 | 71 | 64 | 0.0 | 0.0 | 0.00 | 0.00 | 0.00 | 97 | 1014.6 |
| 20260905054608 | 71 | 73 | 0.0 | 0.0 | 0.00 | 0.00 | 0.00 | 97 | 1014.7 |
| 20260905054103 | 71 | 84 | 0.0 | 0.0 | 0.00 | 0.00 | 0.00 | 97 | 1014.6 |
| 20260905053603 | 71 | 87 | 0.0 | 0.0 | 0.00 | 0.00 | 0.00 | 97 | 1014.5 |
| 20260905053058 | 71 | 88 | 0.0 | 0.0 | 0.00 | 0.00 | 0.00 | 96 | 1014.7 |
| 20260905052557 | 71 | 102 | 0.0 | 0.0 | 0.00 | 0.00 | 0.00 | 96 | 1014.5 |
| 20260905052052 | 71 | 79 | 0.0 | 0.0 | 0.00 | 0.00 | 0.00 | 95 | 1015.1 |
| 20260905051547 | 71 | 74 | 0.0 | 0.0 | 0.00 | 0.00 | 0.00 | 95 | 1015.1 |
| 20260905051044 | 71 | 80 | 0.0 | 0.0 | 0.00 | 0.00 | 0.00 | 95 | 1014.9 |
| 20260905050534 | 71 | 82 | 0.0 | 0.0 | 0.00 | 0.00 | 0.00 | 95 | 1014.9 |
| 20260905050031 | 72 | 83 | 0.0 | 0.0 | 0.00 | 0.00 | 0.00 | 95 | 1014.9 |
| 20260905045525 | 72 | 84 | 0.0 | 0.0 | 0.00 | 0.56 | 0.56 | 95 | 1015.0 |
| 20260905045021 | 72 | 83 | 0.0 | 0.0 | 0.00 | 0.56 | 0.56 | 95 | 1015.1 |
| 20260905044521 | 72 | 79 | 0.0 | 0.0 | 0.00 | 0.56 | 0.56 | 95 | 1015.1 |
| 20260905044021 | 72 | 74 | 0.0 | 0.0 | 0.00 | 0.56 | 0.56 | 95 | 1015.4 |
| 20260905043520 | 72 | 80 | 0.0 | 0.0 | 0.00 | 0.56 | 0.56 | 95 | 1015.0 |
| 20260905043010 | 72 | 74 | 0.0 | 0.0 | 0.00 | 0.56 | 0.56 | 95 | 1015.2 |
| 20260905042509 | 72 | 64 | 0.0 | 0.0 | 0.00 | 0.56 | 0.56 | 95 | 1015.6 |
| 20260905042004 | 72 | 73 | 1.0 | 1.0 | 0.00 | 0.56 | 0.56 | 96 | 1015.2 |
| 20260905041500 | 72 | 68 | 0.0 | 0.0 | 0.00 | 0.56 | 0.56 | 96 | 1015.2 |
| 20260905040955 | 72 | 76 | 0.0 | 0.0 | 0.00 | 0.56 | 0.56 | 96 | 1015.2 |
| 20260905040454 | 71 | 72 | 0.0 | 0.0 | 0.00 | 0.56 | 0.56 | 96 | 1015.4 |
| 20260905035953 | 71 | 61 | 0.0 | 0.0 | 0.00 | 0.56 | 0.56 | 96 | 1014.9 |
| 20260905035448 | 71 | 70 | 0.0 | 0.0 | 0.00 | 0.56 | 0.56 | 96 | 1015.0 |
| 20260905034946 | 71 | 76 | 0.0 | 0.0 | 0.00 | 0.56 | 0.56 | 96 | 1014.7 |
| 20260905034441 | 71 | 78 | 0.0 | 0.0 | 0.00 | 0.56 | 0.56 | 96 | 1014.9 |
| 20260905033940 | 71 | 71 | 0.0 | 0.0 | 0.00 | 0.56 | 0.56 | 96 | 1014.9 |
| 20260905033440 | 71 | 77 | 0.0 | 0.0 | 0.00 | 0.56 | 0.56 | 96 | 1014.8 |
| 20260905032934 | 71 | 52 | 0.0 | 0.0 | 0.00 | 0.56 | 0.56 | 96 | 1014.9 |
| 20260905032430 | 71 | 69 | 0.0 | 0.0 | 0.00 | 0.56 | 0.56 | 95 | 1014.9 |
| 20260905031925 | 71 | 73 | 0.0 | 0.0 | 0.00 | 0.56 | 0.56 | 95 | 1014.9 |
| 20260905031421 | 71 | 80 | 0.0 | 0.0 | 0.00 | 0.56 | 0.56 | 95 | 1015.3 |
| 20260905030916 | 72 | 82 | 0.0 | 0.0 | 0.00 | 0.56 | 0.56 | 95 | 1015.2 |
| 20260905030411 | 72 | 77 | 0.0 | 0.0 | 0.00 | 0.56 | 0.56 | 95 | 1015.6 |
| 20260905025910 | 72 | 73 | 0.0 | 0.0 | 0.00 | 0.56 | 0.56 | 94 | 1015.4 |
| 20260905025405 | 72 | 75 | 0.0 | 0.0 | 0.00 | 0.56 | 0.56 | 94 | 1015.6 |
| 20260905024902 | 72 | 84 | 0.0 | 0.0 | 0.00 | 0.56 | 0.56 | 94 | 1015.3 |
| 20260905024356 | 72 | 81 | 0.0 | 0.0 | 0.00 | 0.56 | 0.56 | 94 | 1015.4 |
| 20260905023852 | 72 | 83 | 0.0 | 0.0 | 0.00 | 0.56 | 0.56 | 94 | 1015.2 |
| 20260905023347 | 72 | 78 | 0.0 | 0.0 | 0.00 | 0.56 | 0.56 | 94 | 1015.2 |
| 20260905022846 | 73 | 81 | 0.0 | 0.0 | 0.00 | 0.56 | 0.56 | 94 | 1015.6 |
| 20260905022341 | 73 | 82 | 0.0 | 0.0 | 0.00 | 0.56 | 0.56 | 94 | 1015.3 |
| 20260905021836 | 73 | 86 | 0.0 | 0.0 | 0.00 | 0.56 | 0.56 | 93 | 1015.1 |
| 20260905021331 | 73 | 73 | 0.0 | 0.0 | 0.00 | 0.56 | 0.56 | 93 | 1015.1 |
| 20260905020827 | 73 | 76 | 0.0 | 0.0 | 0.00 | 0.56 | 0.56 | 93 | 1015.2 |
| 20260905020321 | 73 | 77 | 0.0 | 0.0 | 0.00 | 0.56 | 0.56 | 93 | 1015.0 |
| 20260905015820 | 73 | 72 | 0.0 | 0.0 | 0.00 | 0.56 | 0.56 | 93 | 1015.4 |
| 20260905015320 | 73 | 73 | 0.0 | 0.0 | 0.00 | 0.56 | 0.56 | 93 | 1015.1 |
| 20260905014819 | 73 | 80 | 0.0 | 0.0 | 0.00 | 0.56 | 0.56 | 93 | 1015.4 |
| 20260905014315 | 73 | 84 | 1.0 | 1.0 | 0.00 | 0.56 | 0.56 | 93 | 1015.3 |
| 20260905013810 | 73 | 75 | 1.0 | 1.0 | 0.00 | 0.56 | 0.56 | 93 | 1015.3 |
| 20260905013306 | 73 | 78 | 1.0 | 1.0 | 0.00 | 0.56 | 0.56 | 93 | 1015.4 |
| 20260905012801 | 73 | 80 | 0.0 | 0.0 | 0.00 | 0.56 | 0.56 | 93 | 1015.4 |
| 20260905012257 | 73 | 81 | 1.0 | 1.0 | 0.00 | 0.56 | 0.56 | 92 | 1015.3 |
| 20260905011753 | 73 | 81 | 0.0 | 0.0 | 0.00 | 0.56 | 0.56 | 92 | 1015.1 |
| 20260905011249 | 74 | 78 | 0.0 | 1.0 | 0.00 | 0.56 | 0.56 | 92 | 1015.0 |
| 20260905010743 | 74 | 84 | 0.0 | 0.0 | 0.00 | 0.56 | 0.56 | 92 | 1015.0 |
| 20260905010239 | 74 | 79 | 0.0 | 0.0 | 0.00 | 0.56 | 0.56 | 92 | 1015.1 |
| 20260905005736 | 74 | 70 | 0.0 | 0.0 | 0.00 | 0.56 | 0.56 | 92 | 1014.6 |
| 20260905005231 | 74 | 85 | 0.0 | 1.0 | 0.00 | 0.56 | 0.56 | 92 | 1014.5 |
| 20260905004730 | 74 | 80 | 0.0 | 0.0 | 0.00 | 0.56 | 0.56 | 91 | 1014.5 |
| 20260905004226 | 74 | 66 | 1.0 | 1.0 | 0.00 | 0.56 | 0.56 | 91 | 1014.5 |
| 20260905003725 | 75 | 68 | 1.0 | 2.0 | 0.00 | 0.56 | 0.56 | 91 | 1014.4 |
| 20260905003222 | 75 | 79 | 2.0 | 2.0 | 0.00 | 0.56 | 0.56 | 91 | 1014.4 |
| 20260905002717 | 75 | 77 | 0.0 | 0.0 | 0.00 | 0.56 | 0.56 | 90 | 1014.2 |
| 20260905002217 | 76 | 81 | 0.0 | 1.0 | 0.00 | 0.56 | 0.56 | 90 | 1014.2 |
| 20260905001712 | 76 | 78 | 1.0 | 1.0 | 0.00 | 0.56 | 0.56 | 89 | 1014.2 |
| 20260905001211 | 76 | 82 | 1.0 | 1.0 | 0.00 | 0.56 | 0.56 | 89 | 1014.4 |
| 20260905000706 | 76 | 84 | 0.0 | 0.0 | 0.00 | 0.56 | 0.56 | 88 | 1014.5 |
| 20260905000204 | 76 | 80 | 0.0 | 1.0 | 0.00 | 0.56 | 0.56 | 88 | 1014.2 |
| 20260904235702 | 77 | 75 | 0.0 | 0.0 | 0.00 | 0.56 | 0.56 | 88 | 1014.3 |
| 20260904235157 | 77 | 75 | 0.0 | 0.0 | 0.00 | 0.56 | 0.56 | 87 | 1014.2 |
| 20260904234652 | 77 | 63 | 0.0 | 0.0 | 0.00 | 0.56 | 0.56 | 87 | 1014.2 |
| 20260904234148 | 77 | 73 | 0.0 | 0.0 | 0.00 | 0.56 | 0.56 | 87 | 1014.2 |
| 20260904233643 | 77 | 73 | 0.0 | 0.0 | 0.00 | 0.56 | 0.56 | 88 | 1014.0 |
| 20260904233139 | 77 | 71 | 3.0 | 3.0 | 0.00 | 0.56 | 0.56 | 87 | 1013.9 |
| 20260904232635 | 77 | 65 | 0.0 | 1.0 | 0.00 | 0.56 | 0.56 | 87 | 1013.9 |
| 20260904232131 | 77 | 76 | 1.0 | 1.0 | 0.00 | 0.56 | 0.56 | 87 | 1013.8 |
| 20260904231626 | 77 | 65 | 1.0 | 1.0 | 0.00 | 0.56 | 0.56 | 87 | 1013.8 |
| 20260904231121 | 78 | 48 | 2.0 | 2.0 | 0.00 | 0.56 | 0.56 | 86 | 1013.7 |
| 20260904230621 | 77 | 54 | 0.0 | 1.0 | 0.00 | 0.56 | 0.56 | 86 | 1013.9 |
| 20260904230116 | 78 | 78 | 0.0 | 0.0 | 0.00 | 0.56 | 0.56 | 86 | 1014.0 |
| 20260904225614 | 77 | 59 | 0.0 | 0.0 | 0.00 | 0.56 | 0.56 | 86 | 1014.1 |
| 20260904225109 | 77 | 70 | 1.0 | 1.0 | 0.00 | 0.56 | 0.56 | 86 | 1013.8 |
| 20260904224603 | 78 | 77 | 1.0 | 1.0 | 0.00 | 0.56 | 0.56 | 85 | 1014.2 |
| 20260904224058 | 77 | 66 | 0.0 | 1.0 | 0.00 | 0.56 | 0.56 | 86 | 1014.0 |
| 20260904223557 | 78 | 42 | 1.0 | 1.0 | 0.00 | 0.56 | 0.56 | 85 | 1013.8 |
| 20260904223053 | 78 | 89 | 2.0 | 2.0 | 0.00 | 0.56 | 0.56 | 85 | 1014.2 |
| 20260904222549 | 78 | 86 | 2.0 | 3.0 | 0.00 | 0.56 | 0.56 | 84 | 1014.0 |
| 20260904222044 | 79 | 30 | 4.0 | 5.0 | 0.00 | 0.56 | 0.56 | 84 | 1013.8 |
| 20260904221538 | 78 | 15 | 3.0 | 5.0 | 0.00 | 0.56 | 0.56 | 84 | 1013.8 |
| 20260904221033 | 79 | 71 | 2.0 | 2.0 | 0.00 | 0.56 | 0.56 | 84 | 1013.9 |
| 20260904220533 | 79 | 64 | 1.0 | 2.0 | 0.00 | 0.56 | 0.56 | 83 | 1014.0 |
| 20260904220029 | 79 | 71 | 2.0 | 3.0 | 0.00 | 0.56 | 0.56 | 83 | 1013.8 |
| 20260904215528 | 79 | 36 | 2.0 | 2.0 | 0.00 | 0.56 | 0.56 | 84 | 1013.8 |
| 20260904215024 | 80 | 26 | 5.0 | 6.0 | 0.00 | 0.56 | 0.56 | 82 | 1013.9 |
| 20260904214519 | 80 | 42 | 1.0 | 2.0 | 0.00 | 0.56 | 0.56 | 83 | 1013.9 |
| 20260904214015 | 81 | 354 | 5.0 | 7.0 | 0.00 | 0.56 | 0.56 | 81 | 1013.9 |
| 20260904213512 | 82 | 49 | 2.0 | 3.0 | 0.00 | 0.56 | 0.56 | 80 | 1013.9 |
| 20260904213004 | 88 | 48 | 3.0 | 3.0 | 0.00 | 0.56 | 0.56 | 73 | 1013.7 |
| 20260904212503 | 88 | 80 | 0.0 | 0.0 | 0.00 | 0.56 | 0.56 | 75 | 1013.6 |
| 20260904211958 | 87 | 337 | 1.0 | 2.0 | 0.00 | 0.56 | 0.56 | 76 | 1014.0 |
| 20260904211452 | 88 | 52 | 1.0 | 1.0 | 0.00 | 0.56 | 0.56 | 74 | 1013.8 |
| 20260904210949 | 87 | 293 | 1.0 | 2.0 | 0.00 | 0.56 | 0.56 | 76 | 1013.8 |
| 20260904210447 | 87 | 148 | 1.0 | 1.0 | 0.00 | 0.56 | 0.56 | 76 | 1013.5 |
| 20260904205943 | 87 | 86 | 2.0 | 2.0 | 0.00 | 0.56 | 0.56 | 76 | 1013.6 |
| 20260904205438 | 86 | 253 | 1.0 | 2.0 | 0.00 | 0.56 | 0.56 | 76 | 1013.3 |
| 20260904204936 | 87 | 257 | 1.0 | 2.0 | 0.00 | 0.56 | 0.56 | 76 | 1013.3 |
| 20260904204431 | 87 | 98 | 1.0 | 2.0 | 0.00 | 0.56 | 0.56 | 77 | 1013.3 |
| 20260904203927 | 86 | 157 | 3.0 | 3.0 | 0.00 | 0.56 | 0.56 | 78 | 1013.1 |
| 20260904203423 | 86 | 312 | 3.0 | 3.0 | 0.00 | 0.56 | 0.56 | 78 | 1013.2 |
| 20260904202919 | 84 | 350 | 2.0 | 3.0 | 0.00 | 0.56 | 0.56 | 79 | 1013.3 |
| 20260904202415 | 84 | 323 | 3.0 | 5.0 | 0.00 | 0.56 | 0.56 | 79 | 1013.3 |
| 20260904201911 | 83 | 2 | 1.0 | 2.0 | 0.00 | 0.56 | 0.56 | 80 | 1013.5 |
| 20260904201405 | 84 | 81 | 2.0 | 3.0 | 0.00 | 0.56 | 0.56 | 79 | 1013.4 |
| 20260904200901 | 83 | 62 | 1.0 | 1.0 | 0.00 | 0.56 | 0.56 | 81 | 1013.4 |
| 20260904200359 | 83 | 285 | 4.0 | 6.0 | 0.00 | 0.56 | 0.56 | 80 | 1013.5 |
| 20260904195854 | 84 | 79 | 3.0 | 5.0 | 0.00 | 0.56 | 0.56 | 80 | 1013.1 |
| 20260904195352 | 84 | 150 | 3.0 | 5.0 | 0.00 | 0.56 | 0.56 | 79 | 1013.5 |
| 20260904194847 | 84 | 66 | 1.0 | 2.0 | 0.00 | 0.56 | 0.56 | 80 | 1013.8 |
| 20260904194346 | 83 | 265 | 1.0 | 1.0 | 0.00 | 0.56 | 0.56 | 83 | 1013.9 |
| 20260904193842 | 82 | 298 | 5.0 | 8.0 | 0.00 | 0.56 | 0.56 | 82 | 1013.8 |
| 20260904193337 | 82 | 134 | 3.0 | 5.0 | 0.00 | 0.56 | 0.56 | 82 | 1014.0 |
| 20260904192832 | 82 | 15 | 3.0 | 3.0 | 0.00 | 0.56 | 0.56 | 81 | 1013.9 |
| 20260904192327 | 82 | 120 | 5.0 | 8.0 | 0.00 | 0.56 | 0.56 | 80 | 1013.9 |
| 20260904191825 | 82 | 110 | 1.0 | 1.0 | 0.00 | 0.56 | 0.56 | 83 | 1014.1 |
| 20260904191321 | 81 | 283 | 2.0 | 5.0 | 0.00 | 0.56 | 0.56 | 83 | 1014.1 |
| 20260904190817 | 80 | 342 | 5.0 | 8.0 | 0.00 | 0.56 | 0.56 | 83 | 1013.9 |
| 20260904190312 | 80 | 206 | 3.0 | 3.0 | 0.00 | 0.56 | 0.56 | 83 | 1014.2 |
| 20260904185809 | 80 | 119 | 1.0 | 2.0 | 0.00 | 0.56 | 0.56 | 84 | 1014.1 |
| 20260904185306 | 81 | 339 | 4.0 | 6.0 | 0.00 | 0.56 | 0.56 | 83 | 1014.0 |
| 20260904184803 | 81 | 84 | 3.0 | 5.0 | 0.00 | 0.56 | 0.56 | 83 | 1014.2 |
| 20260904184258 | 80 | 155 | 3.0 | 5.0 | 0.00 | 0.56 | 0.56 | 84 | 1014.1 |
| 20260904183753 | 80 | 235 | 6.0 | 8.0 | 0.00 | 0.56 | 0.56 | 85 | 1014.1 |
| 20260904183248 | 79 | 182 | 6.0 | 8.0 | 0.00 | 0.56 | 0.56 | 85 | 1014.2 |
| 20260904182744 | 78 | 184 | 3.0 | 5.0 | 0.00 | 0.56 | 0.56 | 88 | 1014.3 |
| 20260904182238 | 77 | 57 | 2.0 | 2.0 | 0.00 | 0.56 | 0.56 | 89 | 1014.5 |
| 20260904181734 | 75 | 141 | 3.0 | 3.0 | 0.00 | 0.56 | 0.56 | 91 | 1014.6 |
| 20260904181234 | 75 | 263 | 4.0 | 7.0 | 0.00 | 0.56 | 0.56 | 91 | 1014.4 |
| 20260904180729 | 74 | 143 | 3.0 | 3.0 | 0.00 | 0.56 | 0.56 | 92 | 1014.4 |
| 20260904180225 | 73 | 180 | 3.0 | 5.0 | 0.00 | 0.56 | 0.56 | 93 | 1014.7 |
| 20260904175724 | 73 | 164 | 1.0 | 2.0 | 0.00 | 0.56 | 0.56 | 93 | 1014.5 |
| 20260904175222 | 73 | 233 | 3.0 | 3.0 | 0.00 | 0.56 | 0.56 | 94 | 1014.6 |
| 20260904174717 | 72 | 137 | 2.0 | 3.0 | 0.00 | 0.56 | 0.56 | 94 | 1014.7 |
| 20260904174213 | 72 | 112 | 4.0 | 7.0 | 0.00 | 0.56 | 0.56 | 95 | 1014.7 |
| 20260904173709 | 72 | 129 | 2.0 | 3.0 | 0.00 | 0.56 | 0.56 | 96 | 1014.7 |
| 20260904173204 | 72 | 173 | 3.0 | 3.0 | 0.00 | 0.56 | 0.56 | 96 | 1014.7 |
| 20260904172700 | 71 | 190 | 3.0 | 3.0 | 0.00 | 0.56 | 0.56 | 96 | 1014.5 |
| 20260904172159 | 71 | 65 | 1.0 | 1.0 | 0.00 | 0.56 | 0.56 | 96 | 1014.5 |
| 20260904171654 | 71 | 128 | 2.0 | 3.0 | 0.00 | 0.56 | 0.56 | 97 | 1014.7 |
| 20260904171149 | 71 | 98 | 1.0 | 1.0 | 0.00 | 0.56 | 0.56 | 97 | 1014.6 |
| 20260904170646 | 70 | 168 | 5.0 | 6.0 | 0.00 | 0.56 | 0.56 | 97 | 1014.9 |
| 20260904170141 | 70 | 130 | 1.0 | 2.0 | 0.00 | 0.56 | 0.56 | 97 | 1014.9 |
| 20260904165639 | 70 | 25 | 0.0 | 1.0 | 0.00 | 0.56 | 0.56 | 97 | 1014.5 |
| 20260904165134 | 69 | 146 | 2.0 | 3.0 | 0.00 | 0.56 | 0.56 | 97 | 1014.6 |
| 20260904164634 | 69 | 83 | 2.0 | 3.0 | 0.00 | 0.56 | 0.56 | 97 | 1015.0 |
| 20260904164129 | 69 | 126 | 2.0 | 5.0 | 0.00 | 0.56 | 0.56 | 97 | 1014.9 |
| 20260904163625 | 69 | 167 | 3.0 | 5.0 | 0.00 | 0.56 | 0.56 | 97 | 1015.2 |
| 20260904163120 | 69 | 133 | 2.0 | 2.0 | 0.00 | 0.56 | 0.56 | 97 | 1015.2 |
| 20260904162620 | 69 | 45 | 2.0 | 3.0 | 0.00 | 0.56 | 0.56 | 97 | 1015.6 |
| 20260904162115 | 69 | 136 | 3.0 | 6.0 | 0.00 | 0.56 | 0.56 | 97 | 1015.6 |
| 20260904161610 | 69 | 126 | 5.0 | 10.0 | 0.05 | 0.56 | 0.56 | 98 | 1015.2 |
| 20260904161105 | 68 | 227 | 2.0 | 6.0 | 0.05 | 0.56 | 0.56 | 98 | 1015.4 |
| 20260904160601 | 68 | 127 | 1.0 | 2.0 | 0.07 | 0.55 | 0.55 | 98 | 1015.8 |
| 20260904160057 | 68 | 86 | 1.0 | 1.0 | 0.26 | 0.55 | 0.55 | 98 | 1016.3 |
| 20260904155556 | 68 | 114 | 3.0 | 5.0 | 0.35 | 0.54 | 0.54 | 98 | 1016.6 |
| 20260904155050 | 68 | 197 | 7.0 | 10.0 | 0.28 | 0.51 | 0.51 | 98 | 1016.4 |
| 20260904154544 | 68 | 102 | 1.0 | 2.0 | 0.85 | 0.48 | 0.48 | 98 | 1016.7 |
| 20260904154039 | 68 | 148 | 3.0 | 3.0 | 0.85 | 0.46 | 0.46 | 98 | 1016.9 |
| 20260904153538 | 68 | 87 | 0.0 | 1.0 | 0.19 | 0.35 | 0.35 | 98 | 1017.5 |
| 20260904153035 | 69 | 117 | 3.0 | 5.0 | 0.00 | 0.32 | 0.32 | 98 | 1017.8 |
| 20260904152531 | 69 | 24 | 1.0 | 1.0 | 0.00 | 0.32 | 0.32 | 98 | 1017.8 |
| 20260904152026 | 68 | 125 | 4.0 | 5.0 | 0.00 | 0.32 | 0.32 | 98 | 1017.3 |
| 20260904151520 | 69 | 102 | 1.0 | 2.0 | 0.00 | 0.32 | 0.32 | 98 | 1017.4 |
| 20260904151015 | 69 | 86 | 1.0 | 2.0 | 0.17 | 0.32 | 0.32 | 98 | 1017.2 |
| 20260904150515 | 69 | 144 | 3.0 | 3.0 | 0.35 | 0.32 | 0.32 | 98 | 1016.8 |
| 20260904150009 | 68 | 13 | 2.0 | 3.0 | 0.24 | 0.30 | 0.30 | 98 | 1016.5 |
| 20260904145504 | 68 | 137 | 2.0 | 5.0 | 0.00 | 0.26 | 0.26 | 98 | 1016.9 |